This demonstration page uses our WeatherBlox Daily Observations layout. Learn more.

Left ArrowRight Arrow

Hourly Observations for July 28, 2016

Temp ( °F °C ) Dew Point ( °F °C ) Humidity (%) Winds ( mph kmh ) Pressure ( in mb ) Visibility ( mi km ) Precip ( " mm )
12:53 am 00:53 Mostly Cloudy 76 24.4 71 21.7 85 85 N N/A 29.93 1014 10 16 N/A
1:53 am 01:53 Mostly Cloudy 75 23.9 71 21.7 88 88 N N/A 29.93 1013 10 16 N/A
2:53 am 02:53 Mostly Cloudy 74 23.3 70 21.1 88 88 N N/A 29.91 1013 10 16 N/A
3:53 am 03:53 Partly Cloudy 74 23.3 70 21.1 88 88 N N/A 29.89 1012 10 16 N/A
4:53 am 04:53 Mostly Clear 73 22.8 70 21.1 90 90 N N/A 29.88 1012 10 16 N/A
5:41 am 05:41 Mostly Cloudy with Nearby Thunderstorms 76 24.4 70 21.1 82 82 VRB 5 7 29.91 1013 10 16 N/A
5:53 am 05:53 Cloudy with Thunderstorms 76 24.4 70 21.1 82 82 SSE 5 7 29.91 1013 10 16 N/A
6:09 am 06:09 Cloudy with Nearby Thunderstorms 75 23.9 70 21.1 84 84 S 8 13 29.94 1014 10 16 N/A
6:27 am 06:27 Cloudy with Thunderstorms 75 23.9 71 21.7 88 88 N N/A 29.94 1014 6 10 0.01 0.25
6:41 am 06:41 Cloudy with Nearby Thunderstorms 72 22.2 69 20.6 91 91 S 8 13 29.94 1014 3 4 0.06 1.52
6:53 am 06:53 Cloudy with Nearby Thunderstorms 72 22.2 70 21.1 94 94 N N/A 29.92 1013 4 6 0.09 2.29
7:02 am 07:02 Cloudy with Rain 72 22.2 70 21.1 94 94 N N/A 29.94 1014 3 5 0.03 0.76
7:45 am 07:45 Mostly Cloudy with Rain 73 22.8 70 21.1 90 90 W 5 7 29.94 1014 2 3 0.12 3.05
7:53 am 07:53 Cloudy with Rain 73 22.8 71 21.7 94 94 N N/A 29.92 1013 3 4 0.14 3.56
8:10 am 08:10 Cloudy with Rain 72 22.2 71 21.7 97 97 N N/A 29.94 1014 4 6 0.03 0.76
8:28 am 08:28 Cloudy with Light Rain 73 22.8 71 21.7 94 94 E 3 6 29.94 1014 6 10 0.06 1.52
8:53 am 08:53 Cloudy with Light Rain 73 22.8 71 21.7 94 94 N N/A 29.90 1013 8 13 0.06 1.52
9:05 am 09:05 Cloudy with Light Rain 74 23.3 71 21.7 91 91 NE 3 6 29.91 1013 7 11 N/A
9:17 am 09:17 Cloudy with Light Rain 74 23.3 71 21.7 91 91 N N/A 29.94 1014 7 11 N/A
9:24 am 09:24 Cloudy with Light Rain 74 23.3 71 21.7 91 91 NNW 3 6 29.94 1014 6 10 N/A
9:44 am 09:44 Cloudy with Light Rain 74 23.3 72 22.2 94 94 N N/A 29.94 1014 7 11 0.01 0.25
9:53 am 09:53 Cloudy 74 23.3 72 22.2 94 94 S 3 6 29.91 1013 7 11 0.01 0.25
10:02 am 10:02 Mostly Cloudy 74 23.3 72 22.2 94 94 W 3 6 29.94 1014 8 13 N/A
10:12 am 10:12 Mostly Cloudy 74 23.3 71 21.7 91 91 W 7 11 29.94 1014 10 16 N/A
10:33 am 10:33 Cloudy 74 23.3 71 21.7 91 91 N N/A 29.94 1014 10 16 N/A
10:42 am 10:42 Cloudy 75 23.9 71 21.7 88 88 N N/A 29.94 1014 10 16 N/A
10:53 am 10:53 Cloudy 75 23.9 72 22.2 90 90 WSW 3 6 29.91 1013 10 16 N/A
11:42 am 11:42 Cloudy 76 24.4 71 21.7 85 85 W 5 7 29.94 1014 10 16 N/A
11:53 am 11:53 Cloudy 77 25 71 21.7 82 82 W 5 7 29.91 1013 10 16 N/A
12:10 pm 12:10 Mostly Cloudy 78 25.6 72 22.2 82 82 N N/A 29.94 1014 10 16 N/A
12:37 pm 12:37 Mostly Cloudy 80 26.7 71 21.7 74 74 N N/A 29.88 1012 10 16 N/A
12:49 pm 12:49 Mostly Cloudy 81 27 72 22 74 74 N N/A 29.88 1012 10 16 N/A
12:53 pm 12:53 Mostly Cloudy 80 26.7 71 21.7 74 74 N N/A 29.89 1012 10 16 N/A
1:53 pm 13:53 Partly Cloudy 82 27.8 71 21.7 69 69 NNW 3 6 29.88 1012 10 16 N/A
2:28 pm 14:28 Cloudy 82 27.8 72 22.2 72 72 N N/A 29.85 1011 10 16 N/A
2:53 pm 14:53 Mostly Cloudy 82 27.8 72 22.2 72 72 VRB 3 6 29.87 1012 10 16 N/A
3:00 pm 15:00 Mostly Cloudy 82 27.8 71 21.7 69 69 VRB 3 6 29.85 1011 10 16 N/A
3:53 pm 15:53 Sunny 82 27.8 71 21.7 69 69 N N/A 29.86 1011 10 16 N/A
4:20 pm 16:20 Mostly Cloudy 81 27.2 72 22.2 74 74 S 5 7 29.85 1011 10 16 N/A
4:53 pm 16:53 Cloudy 81 27.2 71 21.7 72 72 SSE 3 6 29.85 1011 10 16 N/A
5:09 pm 17:09 Cloudy 82 27.8 72 22.2 72 72 VRB 5 7 29.85 1011 10 16 N/A
5:53 pm 17:53 Mostly Sunny 83 28.3 71 21.7 67 67 N N/A 29.85 1011 10 16 N/A
6:53 pm 18:53 Sunny 82 27.8 72 22.2 72 72 SSW 3 6 29.85 1011 10 16 N/A
7:53 pm 19:53 Partly Cloudy 79 26.1 73 22.8 82 82 WSW 3 6 29.88 1012 10 16 N/A
8:00 pm 20:00 Partly Cloudy with Nearby Thunderstorms 79 26.1 72 22.2 79 79 N N/A 29.85 1011 10 16 N/A
8:24 pm 20:24 Mostly Cloudy 78 25.6 73 22.8 85 85 VRB 5 7 29.88 1012 10 16 N/A
8:53 pm 20:53 Mostly Cloudy 76 24.4 68 20 77 77 N N/A 29.88 1012 10 16 N/A
9:53 pm 21:53 Clear 73 22.8 69 20.6 87 87 N N/A 29.89 1012 10 16 N/A
10:53 pm 22:53 Clear 70 21.1 68 20 93 93 N N/A 29.90 1013 10 16 N/A
11:53 pm 23:53 Clear 70 21.1 68 20 93 93 N N/A 29.90 1012 9 14 N/A

Powered by AerisWeather